Tracking 20724 objects as of 2-Jun-2020
HD Live streaming from Space Station
objects crossing your sky now

COSMOS 842

Track COSMOS 842 now!
10-day predictions
COSMOS 842 is classified as:


NORAD ID: 9025
Int'l Code: 1976-070A
Perigee: 972.7 km
Apogee: 1,011.6 km
Inclination: 83.0 °
Period: 104.8 minutes
Semi major axis: 7363 km
RCS: 2.9713 m2 (large)
Launch date: July 21, 1976
Source: Commonwealth of Independent States (former USSR) (CIS)
Launch site: PLESETSK MISSILE AND SPACE COMPLEX (PKMTR)
aabbcc
Your satellite tracking list
Your tracking list is empty




NASA's NSSDC Master Catalog

Two Line Element Set (TLE):
1  9025U 76070A   20154.59730644 +.00000006 +00000-0 -95483-5 0  9997
2  9025 082.9890 237.4086 0026386 295.9500 180.6737 13.74060010199181
Source of the keplerian elements: AFSPC